Location: Oberwesel
(50.1000°N, 7.7333°E)
Time: 03:27:04
(UTC+02:00)

ISS - Visible Passes

Search period start: 21 May 2025 00:00
Search period end: 31 May 2025 00:00
Orbit: 416 x 419 km, 51.6° (Epoch: 20 May)

Date Brightness Start Highest point End Pass type
(mag) Time Alt. Az. Time Alt. Az. Time Alt. Az.
21 May -3.8 22:16:52 10° WNW 22:20:14 74° SSW 22:23:25 11° ESE visible
21 May -1.9 23:54:08 10° W 23:56:19 19° SW 23:56:19 19° SW visible
22 May -2.5 23:05:47 10° W 23:08:42 28° SW 23:09:57 21° S visible
23 May -3.0 22:17:33 10° W 22:20:44 40° SSW 22:23:35 12° SE visible
24 May -1.5 23:07:13 10° WSW 23:08:56 13° SW 23:10:10 11° SSW visible
25 May -1.9 22:18:30 10° W 22:21:01 20° SW 22:23:32 10° S visible
